Time,TemperatureF,DewpointF,PressureIn,WindDirection,WindDirectionDegrees,WindSpeedMPH,WindSpeedGustMPH,Humidity,HourlyPrecipIn,Conditions,Clouds,dailyrainin,SolarRadiationWatts/m^2,SoftwareType,DateUTC
2013-05-25 00:01:00,49.8,49.0,29.79,NW,306,5.8,5.8,97,0.00,-DZ,OVC,0.00,0.0,WeatherDisplay:10.37,2013-05-25 04:01:00,
2013-05-25 00:06:00,49.6,48.8,29.79,North,353,3.5,3.5,97,0.00,-RA,OVC,0.00,0.0,WeatherDisplay:10.37,2013-05-25 04:06:00,
2013-05-25 00:11:00,49.6,48.8,29.79,North,353,3.5,3.5,97,0.00,-RA,OVC,0.00,0.0,WeatherDisplay:10.37,2013-05-25 04:11:00,
2013-05-25 00:16:00,49.5,48.6,29.79,NW,323,3.5,3.5,97,0.00,-RA,OVC,0.00,0.0,WeatherDisplay:10.37,2013-05-25 04:16:00,
2013-05-25 00:21:00,49.5,48.6,29.79,North,349,2.3,2.3,97,0.00,-RA,OVC,0.00,0.0,WeatherDisplay:10.37,2013-05-25 04:21:00,
2013-05-25 00:26:00,49.5,48.6,29.79,NW,320,2.3,0.0,97,0.00,-RA,OVC,0.00,0.0,WeatherDisplay:10.37,2013-05-25 04:26:00,
2013-05-25 00:31:00,49.5,48.6,29.79,NNW,334,2.3,0.0,97,0.00,-RA,OVC,0.00,0.0,WeatherDisplay:10.37,2013-05-25 04:31:00,
2013-05-25 00:36:00,49.5,48.6,29.79,NNE,19,3.5,0.0,97,0.00,-RA,OVC,0.00,0.0,WeatherDisplay:10.37,2013-05-25 04:36:00,
2013-05-25 00:41:00,49.5,48.6,29.76,NNW,345,3.5,3.5,97,0.00,-RA,OVC,0.00,0.0,WeatherDisplay:10.37,2013-05-25 04:41:00,
2013-05-25 00:46:00,49.5,48.6,29.76,North,3,5.8,5.8,97,0.00,-RA,OVC,0.00,0.0,WeatherDisplay:10.37,2013-05-25 04:46:00,
2013-05-25 00:51:00,49.5,48.6,29.76,NNW,327,5.8,5.8,97,0.00,-RA,OVC,0.00,0.0,WeatherDisplay:10.37,2013-05-25 04:51:00,
2013-05-25 00:56:00,49.3,48.5,29.76,NNW,328,3.5,3.5,97,0.00,-RA,OVC,0.00,0.0,WeatherDisplay:10.37,2013-05-25 04:56:00,
2013-05-25 01:01:00,49.3,48.5,29.76,NW,325,5.8,5.8,97,0.00,-RA,OVC,0.00,0.0,WeatherDisplay:10.37,2013-05-25 05:01:00,
2013-05-25 01:06:00,49.1,48.3,29.76,WNW,300,2.3,2.3,97,0.00,-RA,OVC,0.00,0.0,WeatherDisplay:10.37,2013-05-25 05:06:00,
2013-05-25 01:11:00,49.1,48.3,29.76,NNW,329,3.5,3.5,97,0.00,-RA,OVC,0.00,0.0,WeatherDisplay:10.37,2013-05-25 05:11:00,
2013-05-25 01:16:00,49.1,48.3,29.76,NW,315,5.8,5.8,97,0.00,-RA,OVC,0.00,0.0,WeatherDisplay:10.37,2013-05-25 05:16:00,
2013-05-25 01:21:00,48.9,48.1,29.76,NW,320,5.8,5.8,97,0.00,-RA,OVC,0.00,0.0,WeatherDisplay:10.37,2013-05-25 05:21:00,
2013-05-25 01:26:00,48.9,48.1,29.76,NNW,347,3.5,3.5,97,0.00,-RA,OVC,0.00,0.0,WeatherDisplay:10.37,2013-05-25 05:26:00,
2013-05-25 01:31:00,48.7,47.9,29.76,NW,319,3.5,3.5,97,0.00,-RA,OVC,0.00,0.0,WeatherDisplay:10.37,2013-05-25 05:31:00,
2013-05-25 01:36:00,48.7,47.9,29.76,NNW,338,3.5,3.6,97,0.00,-RA,OVC,0.00,0.0,WeatherDisplay:10.37,2013-05-25 05:36:00,
2013-05-25 01:41:00,48.7,47.9,29.76,North,3,8.1,8.1,97,0.00,-RA,OVC,0.00,0.0,WeatherDisplay:10.37,2013-05-25 05:41:00,
2013-05-25 01:46:00,48.7,47.9,29.76,NNW,337,9.2,0.0,97,0.00,-RA,OVC,0.00,0.0,WeatherDisplay:10.37,2013-05-25 05:46:00,
2013-05-25 01:51:00,48.6,47.7,29.76,NNE,27,3.5,3.5,97,0.00,-RA,OVC,0.00,0.0,WeatherDisplay:10.37,2013-05-25 05:51:00,
2013-05-25 01:56:00,48.6,47.7,29.76,WNW,295,5.8,5.8,97,0.00,-RA,OVC,0.00,0.0,WeatherDisplay:10.37,2013-05-25 05:56:00,
2013-05-25 02:01:00,48.6,47.7,29.76,North,349,4.6,0.0,97,0.00,-RA,OVC,0.00,0.0,WeatherDisplay:10.37,2013-05-25 06:01:00,
2013-05-25 02:06:00,48.6,48.0,29.76,North,351,8.1,8.1,98,0.00,-RA,OVC,0.00,0.0,WeatherDisplay:10.37,2013-05-25 06:06:00,
2013-05-25 02:11:00,48.6,48.0,29.76,NW,325,5.8,5.8,98,0.00,-RA,OVC,0.00,0.0,WeatherDisplay:10.37,2013-05-25 06:11:00,
2013-05-25 02:16:00,48.6,48.0,29.76,NNW,330,2.3,2.7,98,0.00,-RA,OVC,0.00,0.0,WeatherDisplay:10.37,2013-05-25 06:16:00,
2013-05-25 02:21:00,48.6,48.0,29.76,NNW,335,3.5,0.0,98,0.00,-RA,OVC,0.00,0.0,WeatherDisplay:10.37,2013-05-25 06:21:00,
2013-05-25 02:26:00,48.6,48.0,29.76,WNW,300,4.6,4.6,98,0.00,-RA,OVC,0.00,0.0,WeatherDisplay:10.37,2013-05-25 06:26:00,
2013-05-25 02:31:00,48.6,48.0,29.76,NNW,338,3.5,0.0,98,0.00,-RA,OVC,0.00,0.0,WeatherDisplay:10.37,2013-05-25 06:31:00,
2013-05-25 02:36:00,48.6,48.0,29.76,North,357,8.1,8.1,98,0.00,-RA,OVC,0.00,0.0,WeatherDisplay:10.37,2013-05-25 06:36:00,
2013-05-25 02:41:00,48.6,48.0,29.76,NNW,334,3.5,3.5,98,0.00,-RA,OVC,0.00,0.0,WeatherDisplay:10.37,2013-05-25 06:41:00,
2013-05-25 02:46:00,48.6,48.0,29.76,North,355,0.0,0.0,98,0.00,-RA,OVC,0.00,0.0,WeatherDisplay:10.37,2013-05-25 06:46:00,
2013-05-25 02:51:00,48.6,48.0,29.76,NW,311,0.0,0.0,98,0.00,-RA,OVC,0.00,0.0,WeatherDisplay:10.37,2013-05-25 06:51:00,
2013-05-25 02:56:00,48.4,47.8,29.73,NW,308,2.3,0.0,98,0.00,-RA,OVC,0.00,0.0,WeatherDisplay:10.37,2013-05-25 06:56:00,
2013-05-25 03:01:00,48.4,47.8,29.73,NNE,15,0.0,0.0,98,0.00,-RA,OVC,0.00,0.0,WeatherDisplay:10.37,2013-05-25 07:01:00,
2013-05-25 03:06:00,48.4,47.8,29.73,NNW,337,0.0,0.0,98,0.20,-RA,OVC,0.20,0.0,WeatherDisplay:10.37,2013-05-25 07:06:00,
2013-05-25 03:11:00,48.4,47.8,29.73,NNW,340,3.5,0.0,98,0.20,-RA,OVC,0.20,0.0,WeatherDisplay:10.37,2013-05-25 07:11:00,
2013-05-25 03:16:00,48.4,47.8,29.73,NNE,19,3.5,3.5,98,0.20,OVC,,0.20,0.0,WeatherDisplay:10.37,2013-05-25 07:16:00,
2013-05-25 03:21:00,48.4,47.8,29.73,NNW,345,4.6,4.6,98,0.20,OVC,,0.20,0.0,WeatherDisplay:10.37,2013-05-25 07:21:00,
2013-05-25 03:26:00,48.4,47.8,29.73,NW,323,0.0,0.0,98,0.20,OVC,,0.20,0.0,WeatherDisplay:10.37,2013-05-25 07:26:00,
2013-05-25 03:31:00,48.4,47.8,29.73,NNW,343,3.5,0.0,98,0.20,OVC,,0.20,0.0,WeatherDisplay:10.37,2013-05-25 07:31:00,
2013-05-25 03:36:00,48.4,47.8,29.73,North,357,0.0,0.0,98,0.20,OVC,,0.20,0.0,WeatherDisplay:10.37,2013-05-25 07:36:00,
2013-05-25 03:41:00,48.2,47.7,29.73,North,360,0.0,0.0,98,0.20,OVC,,0.20,0.0,WeatherDisplay:10.37,2013-05-25 07:41:00,
2013-05-25 03:46:00,48.2,47.7,29.73,NNW,342,3.5,3.5,98,0.20,OVC,,0.20,0.0,WeatherDisplay:10.37,2013-05-25 07:46:00,
2013-05-25 03:51:00,48.2,47.7,29.73,NNW,337,3.5,0.0,98,0.20,OVC,,0.20,0.0,WeatherDisplay:10.37,2013-05-25 07:51:00,
2013-05-25 03:56:00,48.2,47.7,29.70,NW,312,0.0,0.0,98,0.28,RA,OVC,0.28,0.0,WeatherDisplay:10.37,2013-05-25 07:56:00,
2013-05-25 04:01:00,48.2,47.7,29.70,NW,322,3.5,0.0,98,0.28,RA,OVC,0.28,0.0,WeatherDisplay:10.37,2013-05-25 08:01:00,
2013-05-25 04:06:00,48.2,47.7,29.70,North,10,0.0,0.0,98,0.08,OVC,,0.28,0.0,WeatherDisplay:10.37,2013-05-25 08:06:00,
2013-05-25 04:11:00,48.2,47.7,29.73,NW,326,3.5,3.5,98,0.08,OVC,,0.28,0.0,WeatherDisplay:10.37,2013-05-25 08:11:00,
2013-05-25 04:16:00,48.2,47.7,29.73,North,2,5.8,5.8,98,0.08,OVC,,0.28,0.0,WeatherDisplay:10.37,2013-05-25 08:16:00,
2013-05-25 04:21:00,48.2,47.7,29.73,NNW,346,0.0,0.0,98,0.08,OVC,,0.28,0.0,WeatherDisplay:10.37,2013-05-25 08:21:00,
2013-05-25 04:26:00,48.2,47.7,29.73,North,353,4.6,0.0,98,0.08,OVC,,0.28,0.0,WeatherDisplay:10.37,2013-05-25 08:26:00,
2013-05-25 04:31:00,48.2,47.7,29.73,NNW,332,3.5,3.5,98,0.08,OVC,,0.28,0.0,WeatherDisplay:10.37,2013-05-25 08:31:00,
2013-05-25 04:36:00,48.2,47.7,29.73,North,9,0.0,0.0,98,0.08,OVC,,0.28,0.0,WeatherDisplay:10.37,2013-05-25 08:36:00,
2013-05-25 04:41:00,48.2,47.7,29.73,North,350,0.0,0.0,98,0.08,OVC,,0.28,0.0,WeatherDisplay:10.37,2013-05-25 08:41:00,
2013-05-25 04:46:00,48.2,47.9,29.73,NW,319,0.0,0.0,99,0.08,OVC,,0.28,0.0,WeatherDisplay:10.37,2013-05-25 08:46:00,
2013-05-25 04:51:00,48.2,47.9,29.73,NNW,340,0.0,0.0,99,0.08,OVC,,0.28,0.0,WeatherDisplay:10.37,2013-05-25 08:51:00,
2013-05-25 04:56:00,48.2,47.9,29.73,WNW,300,0.0,0.0,99,0.00,OVC,,0.28,0.0,WeatherDisplay:10.37,2013-05-25 08:56:00,
2013-05-25 05:01:00,48.2,47.9,29.73,NW,324,0.0,0.0,99,0.00,-RA,OVC,0.28,0.0,WeatherDisplay:10.37,2013-05-25 09:01:00,
2013-05-25 05:06:00,48.2,47.9,29.73,NW,318,4.6,4.6,99,0.00,-RA,OVC,0.28,0.0,WeatherDisplay:10.37,2013-05-25 09:06:00,
2013-05-25 05:11:00,48.2,47.9,29.73,North,4,0.0,0.0,99,0.00,-RA,OVC,0.28,0.0,WeatherDisplay:10.37,2013-05-25 09:11:00,
2013-05-25 05:16:00,48.2,47.9,29.73,NNW,344,3.5,3.6,99,0.00,-RA,OVC,0.28,0.0,WeatherDisplay:10.37,2013-05-25 09:16:00,
2013-05-25 05:21:00,48.2,47.9,29.73,NNW,330,3.5,3.5,99,0.00,-RA,OVC,0.28,0.0,WeatherDisplay:10.37,2013-05-25 09:21:00,
2013-05-25 05:26:00,48.2,47.9,29.73,NNW,334,0.0,0.0,99,0.00,-RA,OVC,0.28,0.0,WeatherDisplay:10.37,2013-05-25 09:26:00,
2013-05-25 05:31:00,48.2,47.9,29.73,NW,316,0.0,0.0,99,0.00,-RA,OVC,0.28,0.0,WeatherDisplay:10.37,2013-05-25 09:31:00,
2013-05-25 05:36:00,48.2,47.9,29.73,WNW,296,3.5,0.0,99,0.00,-RA,OVC,0.28,0.0,WeatherDisplay:10.37,2013-05-25 09:36:00,
2013-05-25 05:41:00,48.2,47.9,29.73,NNW,335,0.0,0.0,99,0.00,-RA,OVC,0.28,0.0,WeatherDisplay:10.37,2013-05-25 09:41:00,
2013-05-25 05:46:00,48.2,47.9,29.73,NNW,331,2.3,0.0,99,0.00,-RA,OVC,0.28,0.0,WeatherDisplay:10.37,2013-05-25 09:46:00,
2013-05-25 05:51:00,48.2,47.9,29.73,NNW,327,0.0,0.0,99,0.00,-RA,OVC,0.28,0.0,WeatherDisplay:10.37,2013-05-25 09:51:00,
2013-05-25 05:56:00,48.2,47.9,29.73,North,5,0.0,0.0,99,0.00,-RA,OVC,0.28,0.0,WeatherDisplay:10.37,2013-05-25 09:56:00,
2013-05-25 06:01:00,48.0,47.8,29.73,NNW,339,2.3,0.0,99,0.00,-DZ,OVC,0.28,0.0,WeatherDisplay:10.37,2013-05-25 10:01:00,
2013-05-25 06:06:00,48.0,47.8,29.73,NNW,340,0.0,0.0,99,0.00,-DZ,OVC,0.28,0.0,WeatherDisplay:10.37,2013-05-25 10:06:00,
2013-05-25 06:11:00,48.2,47.9,29.73,NW,320,0.0,0.0,99,0.00,-DZ,OVC,0.28,0.0,WeatherDisplay:10.37,2013-05-25 10:11:00,
2013-05-25 06:16:00,48.2,47.9,29.73,West,273,2.3,0.0,99,0.00,-DZ,OVC,0.28,0.0,WeatherDisplay:10.37,2013-05-25 10:16:00,
2013-05-25 06:21:00,48.2,47.9,29.73,NNW,339,3.5,3.5,99,0.00,-DZ,OVC,0.28,0.0,WeatherDisplay:10.37,2013-05-25 10:21:00,
2013-05-25 06:26:00,48.2,47.9,29.73,North,349,3.5,0.0,99,0.00,-DZ,OVC,0.28,0.0,WeatherDisplay:10.37,2013-05-25 10:26:00,
2013-05-25 06:31:00,48.2,47.9,29.73,NNW,344,0.0,0.0,99,0.00,-DZ,OVC,0.28,0.0,WeatherDisplay:10.37,2013-05-25 10:31:00,
2013-05-25 06:36:00,48.4,48.1,29.73,NNW,339,4.6,4.6,99,0.00,-DZ,OVC,0.28,0.0,WeatherDisplay:10.37,2013-05-25 10:36:00,
2013-05-25 06:41:00,48.4,48.1,29.73,North,355,3.5,0.0,99,0.00,-DZ,OVC,0.28,0.0,WeatherDisplay:10.37,2013-05-25 10:41:00,
2013-05-25 06:46:00,48.4,48.1,29.73,NW,316,5.8,5.8,99,0.00,-DZ,OVC,0.28,0.0,WeatherDisplay:10.37,2013-05-25 10:46:00,
2013-05-25 06:51:00,48.4,48.1,29.73,North,354,6.9,0.0,99,0.00,-DZ,OVC,0.28,0.0,WeatherDisplay:10.37,2013-05-25 10:51:00,
2013-05-25 06:56:00,48.4,48.1,29.73,NNW,348,0.0,0.0,99,0.00,-DZ,OVC,0.28,0.0,WeatherDisplay:10.37,2013-05-25 10:56:00,
2013-05-25 07:01:00,48.4,48.1,29.73,NNW,337,2.7,0.0,99,0.00,-RA,OVC,0.28,0.0,WeatherDisplay:10.37,2013-05-25 11:01:00,
2013-05-25 07:06:00,48.4,48.1,29.73,NNW,344,2.3,0.0,99,0.00,-RA,OVC,0.28,0.0,WeatherDisplay:10.37,2013-05-25 11:06:00,
2013-05-25 07:11:00,48.4,48.1,29.73,NNW,344,5.8,5.8,99,0.00,-RA,OVC,0.28,0.0,WeatherDisplay:10.37,2013-05-25 11:11:00,
2013-05-25 07:16:00,48.4,48.1,29.73,NW,322,0.0,0.0,99,0.00,-RA,OVC,0.28,0.0,WeatherDisplay:10.37,2013-05-25 11:16:00,
2013-05-25 07:21:00,48.6,48.3,29.73,NNW,343,3.5,3.5,99,0.00,-RA,OVC,0.28,0.0,WeatherDisplay:10.37,2013-05-25 11:21:00,
2013-05-25 07:26:00,48.7,48.5,29.73,NW,320,5.8,5.8,99,0.00,-RA,OVC,0.28,0.0,WeatherDisplay:10.37,2013-05-25 11:26:00,
2013-05-25 07:31:00,48.7,48.5,29.73,WNW,302,3.5,3.5,99,0.00,-RA,OVC,0.28,0.0,WeatherDisplay:10.37,2013-05-25 11:31:00,
2013-05-25 07:36:00,48.7,48.5,29.73,NW,317,3.5,3.5,99,0.00,-RA,OVC,0.28,0.0,WeatherDisplay:10.37,2013-05-25 11:36:00,
2013-05-25 07:41:00,48.7,48.5,29.73,NNW,338,3.5,3.5,99,0.00,-RA,OVC,0.28,0.0,WeatherDisplay:10.37,2013-05-25 11:41:00,
2013-05-25 07:46:00,48.9,48.7,29.73,North,4,0.0,0.0,99,0.00,-RA,OVC,0.28,0.0,WeatherDisplay:10.37,2013-05-25 11:46:00,
2013-05-25 07:51:00,48.9,48.7,29.73,West,277,0.0,0.0,99,0.00,-RA,OVC,0.28,0.0,WeatherDisplay:10.37,2013-05-25 11:51:00,
2013-05-25 07:56:00,48.9,48.7,29.73,NW,317,3.5,3.5,99,0.00,-RA,OVC,0.28,0.0,WeatherDisplay:10.37,2013-05-25 11:56:00,
2013-05-25 08:01:00,48.7,48.5,29.73,NNW,335,3.5,3.5,99,0.00,OVC,,0.28,0.0,WeatherDisplay:10.37,2013-05-25 12:01:00,
2013-05-25 08:06:00,48.7,48.5,29.73,NW,316,5.8,0.0,99,0.00,OVC,,0.28,0.0,WeatherDisplay:10.37,2013-05-25 12:06:00,
2013-05-25 08:11:00,48.7,48.5,29.73,WNW,300,5.8,5.8,99,0.00,OVC,,0.28,0.0,WeatherDisplay:10.37,2013-05-25 12:11:00,
2013-05-25 08:16:00,48.7,48.5,29.73,NW,309,8.1,8.1,99,0.00,OVC,,0.28,0.0,WeatherDisplay:10.37,2013-05-25 12:16:00,
2013-05-25 08:21:00,48.9,48.9,29.73,North,2,3.5,0.0,100,0.04,RA,OVC,0.31,0.0,WeatherDisplay:10.37,2013-05-25 12:21:00,
2013-05-25 08:26:00,48.9,48.9,29.73,NNW,338,3.5,3.5,100,0.04,RA,OVC,0.31,0.0,WeatherDisplay:10.37,2013-05-25 12:26:00,
2013-05-25 08:31:00,49.1,49.1,29.73,NNW,348,3.5,0.0,100,0.04,OVC,,0.31,0.0,WeatherDisplay:10.37,2013-05-25 12:31:00,
2013-05-25 08:36:00,49.5,49.5,29.73,North,2,0.0,0.0,100,0.04,OVC,,0.31,0.0,WeatherDisplay:10.37,2013-05-25 12:36:00,
2013-05-25 08:41:00,49.6,49.6,29.73,NW,319,5.8,5.8,100,0.04,OVC,,0.31,0.0,WeatherDisplay:10.37,2013-05-25 12:41:00,
2013-05-25 08:46:00,49.6,49.6,29.73,North,357,5.8,5.8,100,0.04,-RA,OVC,0.31,0.0,WeatherDisplay:10.37,2013-05-25 12:46:00,
2013-05-25 08:51:00,49.8,49.8,29.73,NNW,339,2.3,0.0,100,0.04,-RA,OVC,0.31,0.0,WeatherDisplay:10.37,2013-05-25 12:51:00,
2013-05-25 08:56:00,49.8,49.8,29.73,NNW,330,3.5,3.5,100,0.04,-RA,OVC,0.31,0.0,WeatherDisplay:10.37,2013-05-25 12:56:00,
2013-05-25 09:01:00,50.0,50.0,29.73,North,349,3.5,3.5,100,0.04,-RA,OVC,0.31,0.0,WeatherDisplay:10.37,2013-05-25 13:01:00,
2013-05-25 09:06:00,50.2,50.2,29.73,NNW,335,5.8,5.8,100,0.04,-RA,OVC,0.31,0.0,WeatherDisplay:10.37,2013-05-25 13:06:00,
2013-05-25 09:11:00,50.2,50.2,29.73,NNW,343,2.3,0.0,100,0.04,-RA,OVC,0.31,0.0,WeatherDisplay:10.37,2013-05-25 13:11:00,
2013-05-25 09:16:00,50.4,50.4,29.73,WNW,287,3.5,3.5,100,0.04,-RA,OVC,0.31,0.0,WeatherDisplay:10.37,2013-05-25 13:16:00,
2013-05-25 09:21:00,50.4,50.4,29.73,NNW,340,0.0,0.0,100,0.00,-RA,OVC,0.31,0.0,WeatherDisplay:10.37,2013-05-25 13:21:00,
2013-05-25 09:26:00,50.2,50.2,29.70,NW,319,2.3,0.0,100,0.00,-RA,OVC,0.31,0.0,WeatherDisplay:10.37,2013-05-25 13:26:00,
2013-05-25 09:31:00,50.4,50.4,29.70,NW,313,0.0,0.0,100,0.00,-RA,OVC,0.31,0.0,WeatherDisplay:10.37,2013-05-25 13:31:00,
2013-05-25 09:36:00,50.4,50.4,29.70,NNW,338,0.0,0.0,100,0.00,-RA,OVC,0.31,0.0,WeatherDisplay:10.37,2013-05-25 13:36:00,
2013-05-25 09:41:00,50.4,50.4,29.73,NW,319,0.0,0.0,100,0.00,-RA,OVC,0.31,0.0,WeatherDisplay:10.37,2013-05-25 13:41:00,
2013-05-25 09:46:00,50.5,50.5,29.73,North,353,0.0,0.0,100,0.00,OVC,,0.31,0.0,WeatherDisplay:10.37,2013-05-25 13:46:00,
2013-05-25 09:51:00,50.7,50.7,29.73,NW,321,6.9,6.9,100,0.00,OVC,,0.31,0.0,WeatherDisplay:10.37,2013-05-25 13:51:00,
2013-05-25 09:56:00,50.9,50.9,29.73,NNW,332,4.6,4.6,100,0.00,OVC,,0.31,0.0,WeatherDisplay:10.37,2013-05-25 13:56:00,
2013-05-25 10:01:00,50.9,50.9,29.73,NW,317,3.5,3.5,100,0.00,-RA,OVC,0.31,0.0,WeatherDisplay:10.37,2013-05-25 14:01:00,
2013-05-25 10:06:00,50.9,50.9,29.73,NNW,345,5.8,5.8,100,0.00,-RA,OVC,0.31,0.0,WeatherDisplay:10.37,2013-05-25 14:06:00,
2013-05-25 10:11:00,51.1,51.1,29.70,NW,310,5.8,5.8,100,0.00,-RA,OVC,0.31,0.0,WeatherDisplay:10.37,2013-05-25 14:11:00,
2013-05-25 10:16:00,51.1,51.1,29.70,North,349,5.8,5.8,100,0.00,-RA,OVC,0.31,0.0,WeatherDisplay:10.37,2013-05-25 14:16:00,
2013-05-25 10:21:00,51.4,51.4,29.70,WNW,289,8.1,8.1,100,0.00,-RA,OVC,0.31,0.0,WeatherDisplay:10.37,2013-05-25 14:21:00,
2013-05-25 10:26:00,51.6,51.6,29.70,WNW,301,4.6,4.6,100,0.00,-RA,OVC,0.31,0.0,WeatherDisplay:10.37,2013-05-25 14:26:00,
2013-05-25 10:31:00,51.6,51.6,29.70,NNW,335,3.5,3.5,100,0.00,-RA,OVC,0.31,0.0,WeatherDisplay:10.37,2013-05-25 14:31:00,
2013-05-25 10:36:00,51.8,51.8,29.70,NW,324,3.5,3.5,100,0.00,-RA,OVC,0.31,0.0,WeatherDisplay:10.37,2013-05-25 14:36:00,
2013-05-25 10:41:00,52.0,52.0,29.70,North,356,0.0,0.0,100,0.00,-RA,OVC,0.31,0.0,WeatherDisplay:10.37,2013-05-25 14:41:00,
2013-05-25 10:46:00,52.0,52.0,29.70,North,359,3.5,3.5,100,0.00,OVC,,0.31,0.0,WeatherDisplay:10.37,2013-05-25 14:46:00,
2013-05-25 10:51:00,52.0,52.0,29.70,NNE,25,3.5,3.5,100,0.00,OVC,,0.31,0.0,WeatherDisplay:10.37,2013-05-25 14:51:00,
2013-05-25 10:56:00,51.8,51.8,29.70,North,351,4.6,4.6,100,0.00,OVC,,0.31,0.0,WeatherDisplay:10.37,2013-05-25 14:56:00,
2013-05-25 11:01:00,51.6,51.6,29.70,NW,321,3.5,3.6,100,0.00,OVC,,0.31,0.0,WeatherDisplay:10.37,2013-05-25 15:01:00,
2013-05-25 11:06:00,51.6,51.6,29.70,NNE,24,8.1,8.1,100,0.00,OVC,,0.31,0.0,WeatherDisplay:10.37,2013-05-25 15:06:00,
2013-05-25 11:11:00,51.6,51.6,29.70,NW,306,3.5,3.5,100,0.00,OVC,,0.31,0.0,WeatherDisplay:10.37,2013-05-25 15:11:00,
2013-05-25 11:16:00,51.8,51.8,29.70,NNW,327,4.6,0.0,100,0.00,OVC,,0.31,0.0,WeatherDisplay:10.37,2013-05-25 15:16:00,
2013-05-25 11:21:00,52.0,52.0,29.70,NW,310,0.0,0.0,100,0.00,OVC,,0.31,0.0,WeatherDisplay:10.37,2013-05-25 15:21:00,
2013-05-25 11:26:00,52.0,52.0,29.70,NNW,348,3.5,0.0,100,0.00,OVC,,0.31,0.0,WeatherDisplay:10.37,2013-05-25 15:26:00,
2013-05-25 11:31:00,52.0,52.0,29.70,NNW,341,3.5,0.0,100,0.00,-RA,OVC,0.31,0.0,WeatherDisplay:10.37,2013-05-25 15:31:00,
2013-05-25 11:36:00,51.8,51.8,29.70,NNW,334,2.3,0.0,100,0.00,-RA,OVC,0.31,0.0,WeatherDisplay:10.37,2013-05-25 15:36:00,
2013-05-25 11:41:00,51.8,51.8,29.70,North,358,8.1,8.1,100,0.00,-RA,OVC,0.31,0.0,WeatherDisplay:10.37,2013-05-25 15:41:00,
2013-05-25 11:46:00,51.6,51.6,29.70,NW,325,3.5,3.5,100,0.00,-RA,OVC,0.31,0.0,WeatherDisplay:10.37,2013-05-25 15:46:00,
2013-05-25 11:51:00,51.6,51.6,29.70,NNE,17,5.8,5.8,100,0.00,-RA,OVC,0.31,0.0,WeatherDisplay:10.37,2013-05-25 15:51:00,
2013-05-25 11:56:00,51.6,51.6,29.70,NNW,340,3.5,3.5,100,0.00,-RA,OVC,0.31,0.0,WeatherDisplay:10.37,2013-05-25 15:56:00,
2013-05-25 12:01:00,51.8,51.8,29.70,North,354,8.1,8.1,100,0.00,-RA,OVC,0.31,0.0,WeatherDisplay:10.37,2013-05-25 16:01:00,
2013-05-25 12:06:00,51.8,51.8,29.70,NW,308,2.3,0.0,100,0.00,-RA,OVC,0.31,0.0,WeatherDisplay:10.37,2013-05-25 16:06:00,
2013-05-25 12:11:00,52.0,52.0,29.70,North,350,4.6,4.6,100,0.00,-RA,OVC,0.31,0.0,WeatherDisplay:10.37,2013-05-25 16:11:00,
2013-05-25 12:16:00,52.2,52.2,29.70,North,351,0.0,0.0,100,0.00,-RA,OVC,0.31,0.0,WeatherDisplay:10.37,2013-05-25 16:16:00,
2013-05-25 12:21:00,52.3,52.3,29.70,NNW,343,3.5,0.0,100,0.00,-RA,OVC,0.31,0.0,WeatherDisplay:10.37,2013-05-25 16:21:00,
2013-05-25 12:26:00,52.5,52.5,29.70,WNW,303,5.8,5.8,100,0.00,-RA,OVC,0.31,0.0,WeatherDisplay:10.37,2013-05-25 16:26:00,
2013-05-25 12:31:00,52.3,52.3,29.70,NNW,330,5.8,5.8,100,0.00,-RA,OVC,0.31,0.0,WeatherDisplay:10.37,2013-05-25 16:31:00,
2013-05-25 12:36:00,52.5,52.5,29.70,NE,35,3.5,3.5,100,0.00,-RA,OVC,0.31,0.0,WeatherDisplay:10.37,2013-05-25 16:36:00,
2013-05-25 12:41:00,52.9,52.9,29.70,North,349,3.5,0.0,100,0.00,-RA,OVC,0.31,0.0,WeatherDisplay:10.37,2013-05-25 16:41:00,
2013-05-25 12:46:00,52.7,52.7,29.70,NNW,331,3.5,3.5,100,0.00,-RA,OVC,0.31,0.0,WeatherDisplay:10.37,2013-05-25 16:46:00,
2013-05-25 12:51:00,52.5,52.5,29.70,NNW,332,8.1,8.1,100,0.00,-RA,OVC,0.31,0.0,WeatherDisplay:10.37,2013-05-25 16:51:00,
2013-05-25 12:56:00,52.5,52.5,29.70,NNW,335,5.8,5.8,100,0.00,-RA,OVC,0.31,0.0,WeatherDisplay:10.37,2013-05-25 16:56:00,
2013-05-25 13:01:00,52.7,52.7,29.70,North,3,2.3,0.0,100,0.00,-DZ,OVC,0.31,0.0,WeatherDisplay:10.37,2013-05-25 17:01:00,
2013-05-25 13:06:00,53.1,53.1,29.70,WNW,298,2.3,0.0,100,0.00,-DZ,OVC,0.31,0.0,WeatherDisplay:10.37,2013-05-25 17:06:00,
2013-05-25 13:11:00,53.4,53.4,29.70,NNE,25,5.8,5.8,100,0.00,-DZ,OVC,0.31,0.0,WeatherDisplay:10.37,2013-05-25 17:11:00,
2013-05-25 13:16:00,53.6,53.6,29.70,NNW,331,5.8,5.8,100,0.00,-DZ,OVC,0.31,0.0,WeatherDisplay:10.37,2013-05-25 17:16:00,
2013-05-25 13:21:00,53.4,53.4,29.70,NW,322,3.5,3.5,100,0.00,-DZ,OVC,0.31,0.0,WeatherDisplay:10.37,2013-05-25 17:21:00,
2013-05-25 13:26:00,53.4,53.4,29.70,North,1,3.5,3.5,100,0.00,-DZ,OVC,0.31,0.0,WeatherDisplay:10.37,2013-05-25 17:26:00,
2013-05-25 13:31:00,53.4,53.4,29.70,NNW,343,3.5,0.0,100,0.00,-RA,OVC,0.31,0.0,WeatherDisplay:10.37,2013-05-25 17:31:00,
2013-05-25 13:36:00,53.6,53.6,29.70,WNW,284,4.0,0.0,100,0.00,-RA,OVC,0.31,0.0,WeatherDisplay:10.37,2013-05-25 17:36:00,
2013-05-25 13:41:00,53.2,53.2,29.70,NW,326,8.1,8.1,100,0.00,-RA,OVC,0.31,0.0,WeatherDisplay:10.37,2013-05-25 17:41:00,
2013-05-25 13:46:00,53.1,52.8,29.70,North,6,5.8,0.0,99,0.00,-RA,OVC,0.31,0.0,WeatherDisplay:10.37,2013-05-25 17:46:00,
2013-05-25 13:51:00,52.9,52.6,29.70,NNW,346,8.1,8.1,99,0.00,-RA,OVC,0.31,0.0,WeatherDisplay:10.37,2013-05-25 17:51:00,
2013-05-25 13:56:00,52.7,52.4,29.70,NNW,347,5.8,5.8,99,0.00,-RA,OVC,0.31,0.0,WeatherDisplay:10.37,2013-05-25 17:56:00,
2013-05-25 14:01:00,52.9,52.6,29.70,NNW,340,5.8,5.8,99,0.00,-DZ,OVC,0.31,0.0,WeatherDisplay:10.37,2013-05-25 18:01:00,
2013-05-25 14:06:00,52.9,52.6,29.70,NW,319,3.5,3.5,99,0.00,-DZ,OVC,0.31,0.0,WeatherDisplay:10.37,2013-05-25 18:06:00,
2013-05-25 14:11:00,52.9,52.6,29.70,NW,322,3.5,3.5,99,0.00,-DZ,OVC,0.31,0.0,WeatherDisplay:10.37,2013-05-25 18:11:00,
2013-05-25 14:16:00,52.7,52.4,29.70,NNW,338,5.8,5.8,99,0.00,-DZ,OVC,0.31,0.0,WeatherDisplay:10.37,2013-05-25 18:16:00,
2013-05-25 14:21:00,52.5,52.2,29.70,NNE,16,4.6,4.6,99,0.00,-DZ,OVC,0.31,0.0,WeatherDisplay:10.37,2013-05-25 18:21:00,
2013-05-25 14:26:00,52.2,51.9,29.70,North,349,8.1,8.1,99,0.00,-DZ,OVC,0.31,0.0,WeatherDisplay:10.37,2013-05-25 18:26:00,
2013-05-25 14:31:00,51.8,51.5,29.70,WNW,283,5.8,5.8,99,0.00,-RA,OVC,0.31,0.0,WeatherDisplay:10.37,2013-05-25 18:31:00,
2013-05-25 14:36:00,51.8,51.5,29.70,North,2,5.8,5.8,99,0.00,-RA,OVC,0.31,0.0,WeatherDisplay:10.37,2013-05-25 18:36:00,
2013-05-25 14:41:00,52.0,51.7,29.70,NNW,348,8.1,8.1,99,0.00,-RA,OVC,0.31,0.0,WeatherDisplay:10.37,2013-05-25 18:41:00,
2013-05-25 14:46:00,52.2,51.9,29.70,NW,304,8.1,8.1,99,0.00,-RA,OVC,0.31,0.0,WeatherDisplay:10.37,2013-05-25 18:46:00,
2013-05-25 14:51:00,52.2,51.9,29.70,NNW,337,3.5,3.5,99,0.00,-RA,OVC,0.31,0.0,WeatherDisplay:10.37,2013-05-25 18:51:00,
2013-05-25 14:56:00,52.2,51.9,29.67,NW,308,3.5,3.5,99,0.04,-RA,OVC,0.35,0.0,WeatherDisplay:10.37,2013-05-25 18:56:00,
2013-05-25 15:01:00,52.0,51.7,29.67,North,3,6.9,6.9,99,0.04,-RA,OVC,0.35,0.0,WeatherDisplay:10.37,2013-05-25 19:01:00,
2013-05-25 15:06:00,51.8,51.5,29.67,NW,313,0.0,0.0,99,0.04,-RA,OVC,0.35,0.0,WeatherDisplay:10.37,2013-05-25 19:06:00,
2013-05-25 15:11:00,51.8,51.5,29.67,NNW,335,5.8,5.8,99,0.04,-RA,OVC,0.35,0.0,WeatherDisplay:10.37,2013-05-25 19:11:00,
2013-05-25 15:16:00,51.8,51.5,29.67,NNW,343,5.8,0.0,99,0.04,-RA,OVC,0.35,0.0,WeatherDisplay:10.37,2013-05-25 19:16:00,
2013-05-25 15:21:00,51.8,51.5,29.67,NW,309,6.9,6.9,99,0.04,-RA,OVC,0.35,0.0,WeatherDisplay:10.37,2013-05-25 19:21:00,
2013-05-25 15:26:00,51.4,51.2,29.67,NW,325,8.1,8.1,99,0.04,-RA,OVC,0.35,0.0,WeatherDisplay:10.37,2013-05-25 19:26:00,
2013-05-25 15:31:00,51.1,50.8,29.67,NNW,348,5.8,5.8,99,0.04,-RA,OVC,0.35,0.0,WeatherDisplay:10.37,2013-05-25 19:31:00,
2013-05-25 15:36:00,50.7,50.4,29.67,NNW,344,8.1,8.1,99,0.04,-RA,OVC,0.35,0.0,WeatherDisplay:10.37,2013-05-25 19:36:00,
2013-05-25 15:41:00,50.4,49.8,29.70,North,357,3.5,3.5,98,0.04,-RA,OVC,0.35,0.0,WeatherDisplay:10.37,2013-05-25 19:41:00,
2013-05-25 15:46:00,50.2,49.6,29.70,NW,307,5.8,5.8,98,0.04,-RA,OVC,0.35,0.0,WeatherDisplay:10.37,2013-05-25 19:46:00,
2013-05-25 15:51:00,49.8,49.6,29.70,WNW,299,5.8,5.8,99,0.04,-RA,OVC,0.35,0.0,WeatherDisplay:10.37,2013-05-25 19:51:00,
2013-05-25 15:56:00,49.6,49.4,29.70,North,357,9.2,9.2,99,0.00,-RA,OVC,0.35,0.0,WeatherDisplay:10.37,2013-05-25 19:56:00,
2013-05-25 16:02:00,49.3,49.0,29.70,WNW,289,8.1,8.1,99,0.00,-RA,OVC,0.35,0.0,WeatherDisplay:10.37,2013-05-25 20:02:00,
2013-05-25 16:07:00,49.1,48.8,29.70,NNW,334,10.4,10.4,99,0.00,-RA,OVC,0.35,0.0,WeatherDisplay:10.37,2013-05-25 20:07:00,
2013-05-25 16:12:00,48.9,48.7,29.70,NW,318,9.2,9.2,99,0.00,-RA,OVC,0.35,0.0,WeatherDisplay:10.37,2013-05-25 20:12:00,
2013-05-25 16:17:00,48.9,48.7,29.70,NW,325,3.5,3.5,99,0.04,-RA,OVC,0.39,0.0,WeatherDisplay:10.37,2013-05-25 20:17:00,
2013-05-25 16:22:00,49.1,48.8,29.70,North,5,8.1,8.1,99,0.04,-RA,OVC,0.39,0.0,WeatherDisplay:10.37,2013-05-25 20:22:00,
2013-05-25 16:27:00,48.9,48.7,29.70,North,352,5.8,5.8,99,0.04,-RA,OVC,0.39,0.0,WeatherDisplay:10.37,2013-05-25 20:27:00,
2013-05-25 16:32:00,48.9,48.7,29.70,West,279,9.2,9.2,99,0.04,-RA,OVC,0.39,0.0,WeatherDisplay:10.37,2013-05-25 20:32:00,
2013-05-25 16:37:00,48.7,48.2,29.70,West,263,5.8,5.8,98,0.04,-RA,OVC,0.39,0.0,WeatherDisplay:10.37,2013-05-25 20:37:00,
2013-05-25 16:42:00,48.6,48.0,29.70,NNW,347,10.4,10.4,98,0.04,-RA,OVC,0.39,0.0,WeatherDisplay:10.37,2013-05-25 20:42:00,
2013-05-25 16:47:00,48.4,47.8,29.70,NW,322,5.8,5.8,98,0.04,-RA,OVC,0.39,0.0,WeatherDisplay:10.37,2013-05-25 20:47:00,
2013-05-25 16:52:00,48.4,47.8,29.70,NNW,329,4.6,4.6,98,0.04,-RA,OVC,0.39,0.0,WeatherDisplay:10.37,2013-05-25 20:52:00,
2013-05-25 16:57:00,48.2,47.7,29.70,WNW,282,8.1,8.1,98,0.04,-RA,OVC,0.39,0.0,WeatherDisplay:10.37,2013-05-25 20:57:00,
2013-05-25 17:02:00,48.2,47.7,29.70,NNW,348,5.8,5.8,98,0.04,OVC,,0.39,0.0,WeatherDisplay:10.37,2013-05-25 21:02:00,
2013-05-25 17:07:00,48.0,47.8,29.70,South,191,10.4,10.4,99,0.04,OVC,,0.39,0.0,WeatherDisplay:10.37,2013-05-25 21:07:00,
2013-05-25 17:12:00,48.0,47.8,29.70,WNW,300,5.8,5.8,99,0.04,OVC,,0.39,0.0,WeatherDisplay:10.37,2013-05-25 21:12:00,
2013-05-25 17:17:00,47.8,47.6,29.70,NNE,14,10.4,10.4,99,0.00,OVC,,0.39,0.0,WeatherDisplay:10.37,2013-05-25 21:17:00,
2013-05-25 17:22:00,47.7,47.1,29.70,NNW,340,10.4,10.4,98,0.00,OVC,,0.39,0.0,WeatherDisplay:10.37,2013-05-25 21:22:00,
2013-05-25 17:27:00,47.5,46.9,29.70,NNW,348,8.1,8.1,98,0.00,OVC,,0.39,0.0,WeatherDisplay:10.37,2013-05-25 21:27:00,
2013-05-25 17:32:00,47.5,46.9,29.70,NNW,343,8.1,8.1,98,0.00,OVC,,0.39,0.0,WeatherDisplay:10.37,2013-05-25 21:32:00,
2013-05-25 17:37:00,47.3,46.8,29.70,NNW,338,5.8,5.8,98,0.00,OVC,,0.39,0.0,WeatherDisplay:10.37,2013-05-25 21:37:00,
2013-05-25 17:42:00,47.1,46.6,29.70,NW,312,10.4,10.4,98,0.00,OVC,,0.39,0.0,WeatherDisplay:10.37,2013-05-25 21:42:00,
2013-05-25 17:47:00,46.9,46.4,29.70,WNW,303,4.6,4.6,98,0.00,OVC,,0.39,0.0,WeatherDisplay:10.37,2013-05-25 21:47:00,
2013-05-25 17:52:00,46.8,46.2,29.70,WNW,290,4.6,4.6,98,0.00,OVC,,0.39,0.0,WeatherDisplay:10.37,2013-05-25 21:52:00,
2013-05-25 17:57:00,46.6,46.0,29.70,NW,319,3.5,4.5,98,0.00,OVC,,0.39,0.0,WeatherDisplay:10.37,2013-05-25 21:57:00,
2013-05-25 18:02:00,46.4,45.9,29.70,North,352,3.5,4.0,98,0.00,OVC,,0.39,0.0,WeatherDisplay:10.37,2013-05-25 22:02:00,
2013-05-25 18:07:00,46.2,45.7,29.70,WNW,297,9.2,9.2,98,0.00,OVC,,0.39,0.0,WeatherDisplay:10.37,2013-05-25 22:07:00,
2013-05-25 18:12:00,46.0,45.5,29.70,NW,317,5.8,6.3,98,0.00,OVC,,0.39,0.0,WeatherDisplay:10.37,2013-05-25 22:12:00,
2013-05-25 18:17:00,45.7,45.1,29.70,NW,319,5.8,5.8,98,0.00,OVC,,0.39,0.0,WeatherDisplay:10.37,2013-05-25 22:17:00,
2013-05-25 18:22:00,45.5,45.0,29.70,NNW,346,4.6,5.4,98,0.00,OVC,,0.39,0.0,WeatherDisplay:10.37,2013-05-25 22:22:00,
2013-05-25 18:27:00,45.3,44.8,29.70,WNW,295,5.8,5.8,98,0.00,OVC,,0.39,0.0,WeatherDisplay:10.37,2013-05-25 22:27:00,
2013-05-25 18:32:00,45.3,44.8,29.70,NW,309,4.6,4.6,98,0.00,OVC,,0.39,0.0,WeatherDisplay:10.37,2013-05-25 22:32:00,
2013-05-25 18:37:00,45.1,44.6,29.70,NNW,346,5.8,5.8,98,0.00,OVC,,0.39,0.0,WeatherDisplay:10.37,2013-05-25 22:37:00,
2013-05-25 18:42:00,45.1,44.6,29.73,NNW,347,9.2,9.2,98,0.00,OVC,,0.39,0.0,WeatherDisplay:10.37,2013-05-25 22:42:00,
2013-05-25 18:47:00,45.0,44.4,29.73,NW,304,8.3,8.3,98,0.00,OVC,,0.39,0.0,WeatherDisplay:10.37,2013-05-25 22:47:00,
2013-05-25 18:52:00,44.8,44.3,29.73,NW,305,6.3,6.3,98,0.00,OVC,,0.39,0.0,WeatherDisplay:10.37,2013-05-25 22:52:00,
2013-05-25 18:57:00,44.4,43.9,29.73,WNW,298,9.2,9.2,98,0.00,OVC,,0.39,0.0,WeatherDisplay:10.37,2013-05-25 22:57:00,
2013-05-25 19:02:00,44.1,43.3,29.73,North,349,6.9,6.9,97,0.00,-RA,OVC,0.39,0.0,WeatherDisplay:10.37,2013-05-25 23:02:00,
2013-05-25 19:07:00,43.7,42.9,29.73,NW,316,5.8,5.8,97,0.00,-RA,OVC,0.39,0.0,WeatherDisplay:10.37,2013-05-25 23:07:00,
2013-05-25 19:12:00,43.5,42.7,29.73,NE,39,6.9,6.9,97,0.00,-RA,OVC,0.39,0.0,WeatherDisplay:10.37,2013-05-25 23:12:00,
2013-05-25 19:17:00,43.3,42.5,29.73,West,276,5.8,5.8,97,0.00,-RA,OVC,0.39,0.0,WeatherDisplay:10.37,2013-05-25 23:17:00,
2013-05-25 19:22:00,43.3,42.5,29.73,NNW,330,3.5,3.5,97,0.00,-RA,OVC,0.39,0.0,WeatherDisplay:10.37,2013-05-25 23:22:00,
2013-05-25 19:27:00,43.3,42.5,29.73,WNW,301,5.8,6.7,97,0.00,-RA,OVC,0.39,0.0,WeatherDisplay:10.37,2013-05-25 23:27:00,
2013-05-25 19:32:00,43.2,42.4,29.73,North,355,8.1,8.1,97,0.00,-RA,OVC,0.39,0.0,WeatherDisplay:10.37,2013-05-25 23:32:00,
2013-05-25 19:37:00,43.0,42.2,29.73,North,8,5.8,0.0,97,0.00,-RA,OVC,0.39,0.0,WeatherDisplay:10.37,2013-05-25 23:37:00,
2013-05-25 19:42:00,42.8,42.0,29.73,North,360,3.5,3.5,97,0.00,-RA,OVC,0.39,0.0,WeatherDisplay:10.37,2013-05-25 23:42:00,
2013-05-25 19:47:00,42.8,42.0,29.73,NNE,27,5.8,5.8,97,0.00,-RA,OVC,0.39,0.0,WeatherDisplay:10.37,2013-05-25 23:47:00,
2013-05-25 19:52:00,42.6,41.8,29.73,NW,325,3.5,3.5,97,0.00,-RA,OVC,0.39,0.0,WeatherDisplay:10.37,2013-05-25 23:52:00,
2013-05-25 19:57:00,42.4,41.6,29.73,NW,322,5.8,5.8,97,0.00,-RA,OVC,0.39,0.0,WeatherDisplay:10.37,2013-05-25 23:57:00,
2013-05-25 20:02:00,42.4,41.6,29.73,NW,323,2.3,0.0,97,0.00,-RA,OVC,0.39,0.0,WeatherDisplay:10.37,2013-05-26 00:02:00,
2013-05-25 20:07:00,42.3,41.5,29.73,NNW,334,8.1,8.1,97,0.00,-RA,OVC,0.39,0.0,WeatherDisplay:10.37,2013-05-26 00:07:00,
2013-05-25 20:12:00,42.3,41.5,29.73,NW,317,5.8,5.8,97,0.00,-RA,OVC,0.39,0.0,WeatherDisplay:10.37,2013-05-26 00:12:00,
2013-05-25 20:17:00,42.1,41.3,29.73,NNW,347,5.8,5.8,97,0.00,-RA,OVC,0.39,0.0,WeatherDisplay:10.37,2013-05-26 00:17:00,
2013-05-25 20:22:00,41.9,41.1,29.73,NW,304,0.0,3.1,97,0.00,-RA,OVC,0.39,0.0,WeatherDisplay:10.37,2013-05-26 00:22:00,
2013-05-25 20:27:00,41.9,41.1,29.73,NNW,336,3.5,0.0,97,0.00,-RA,OVC,0.39,0.0,WeatherDisplay:10.37,2013-05-26 00:27:00,
2013-05-25 20:32:00,41.9,41.1,29.73,NNW,332,2.3,2.7,97,0.00,-RA,OVC,0.39,0.0,WeatherDisplay:10.37,2013-05-26 00:32:00,
2013-05-25 20:37:00,41.9,41.1,29.73,WNW,301,3.5,0.0,97,0.00,-RA,OVC,0.39,0.0,WeatherDisplay:10.37,2013-05-26 00:37:00,
2013-05-25 20:42:00,41.7,40.9,29.73,NW,311,4.6,0.0,97,0.04,-RA,OVC,0.43,0.0,WeatherDisplay:10.37,2013-05-26 00:42:00,
2013-05-25 20:47:00,41.7,40.9,29.73,WNW,283,3.5,3.5,97,0.04,-RA,OVC,0.43,0.0,WeatherDisplay:10.37,2013-05-26 00:47:00,
2013-05-25 20:52:00,41.7,40.9,29.73,WNW,297,2.3,0.0,97,0.04,-RA,OVC,0.43,0.0,WeatherDisplay:10.37,2013-05-26 00:52:00,
2013-05-25 20:57:00,41.7,40.9,29.73,NW,319,5.8,5.8,97,0.04,-RA,OVC,0.43,0.0,WeatherDisplay:10.37,2013-05-26 00:57:00,
2013-05-25 21:02:00,41.7,40.9,29.73,NNW,339,9.2,9.2,97,0.04,-DZ,OVC,0.43,0.0,WeatherDisplay:10.37,2013-05-26 01:02:00,
2013-05-25 21:07:00,41.7,40.9,29.73,NW,321,3.5,3.5,97,0.04,-DZ,OVC,0.43,0.0,WeatherDisplay:10.37,2013-05-26 01:07:00,
2013-05-25 21:12:00,41.7,40.9,29.73,WNW,282,5.8,5.8,97,0.04,-DZ,OVC,0.43,0.0,WeatherDisplay:10.37,2013-05-26 01:12:00,
2013-05-25 21:17:00,41.7,40.9,29.73,North,351,3.5,5.4,97,0.04,-DZ,OVC,0.43,0.0,WeatherDisplay:10.37,2013-05-26 01:17:00,
2013-05-25 21:22:00,41.7,40.9,29.73,NNW,336,3.5,3.5,97,0.04,-DZ,OVC,0.43,0.0,WeatherDisplay:10.37,2013-05-26 01:22:00,
2013-05-25 21:27:00,41.7,40.9,29.73,NNW,334,5.8,5.8,97,0.04,-DZ,OVC,0.43,0.0,WeatherDisplay:10.37,2013-05-26 01:27:00,
2013-05-25 21:32:00,41.7,40.9,29.73,North,359,8.1,8.1,97,0.04,-DZ,OVC,0.43,0.0,WeatherDisplay:10.37,2013-05-26 01:32:00,
2013-05-25 21:37:00,41.5,40.8,29.73,North,1,5.8,5.8,97,0.04,-DZ,OVC,0.43,0.0,WeatherDisplay:10.37,2013-05-26 01:37:00,
2013-05-25 21:42:00,41.5,40.8,29.73,North,359,8.1,8.1,97,0.00,-DZ,OVC,0.43,0.0,WeatherDisplay:10.37,2013-05-26 01:42:00,
2013-05-25 21:47:00,41.5,40.8,29.73,NW,308,12.7,0.0,97,0.00,-DZ,OVC,0.43,0.0,WeatherDisplay:10.37,2013-05-26 01:47:00,
2013-05-25 21:52:00,41.5,40.8,29.73,NW,312,5.8,5.8,97,0.00,-DZ,OVC,0.43,0.0,WeatherDisplay:10.37,2013-05-26 01:52:00,
2013-05-25 21:57:00,41.5,40.8,29.73,NW,309,3.5,4.0,97,0.00,-DZ,OVC,0.43,0.0,WeatherDisplay:10.37,2013-05-26 01:57:00,
2013-05-25 22:02:00,41.5,40.8,29.73,NNW,348,3.5,0.0,97,0.00,-DZ,OVC,0.43,0.0,WeatherDisplay:10.37,2013-05-26 02:02:00,
2013-05-25 22:07:00,41.5,40.8,29.73,NW,326,3.5,3.6,97,0.00,-DZ,OVC,0.43,0.0,WeatherDisplay:10.37,2013-05-26 02:07:00,
2013-05-25 22:12:00,41.5,40.8,29.73,NW,317,5.8,5.8,97,0.00,-DZ,OVC,0.43,0.0,WeatherDisplay:10.37,2013-05-26 02:12:00,
2013-05-25 22:17:00,41.5,40.8,29.73,NW,323,5.8,5.8,97,0.00,-DZ,OVC,0.43,0.0,WeatherDisplay:10.37,2013-05-26 02:17:00,
2013-05-25 22:22:00,41.5,40.8,29.73,NW,322,8.1,8.1,97,0.00,-DZ,OVC,0.43,0.0,WeatherDisplay:10.37,2013-05-26 02:22:00,
2013-05-25 22:27:00,41.4,40.6,29.73,North,1,3.5,3.6,97,0.00,-DZ,OVC,0.43,0.0,WeatherDisplay:10.37,2013-05-26 02:27:00,
2013-05-25 22:32:00,41.4,40.6,29.73,WNW,298,5.8,5.8,97,0.00,-DZ,OVC,0.43,0.0,WeatherDisplay:10.37,2013-05-26 02:32:00,
2013-05-25 22:37:00,41.4,40.6,29.73,NNW,342,5.8,5.8,97,0.00,-DZ,OVC,0.43,0.0,WeatherDisplay:10.37,2013-05-26 02:37:00,
2013-05-25 22:42:00,41.2,40.4,29.73,WNW,287,5.8,5.8,97,0.00,-DZ,OVC,0.43,0.0,WeatherDisplay:10.37,2013-05-26 02:42:00,
2013-05-25 22:47:00,41.2,40.4,29.73,NNW,337,2.3,0.0,97,0.00,-DZ,OVC,0.43,0.0,WeatherDisplay:10.37,2013-05-26 02:47:00,
2013-05-25 22:52:00,41.2,40.4,29.73,NW,305,3.5,0.0,97,0.00,-DZ,OVC,0.43,0.0,WeatherDisplay:10.37,2013-05-26 02:52:00,
2013-05-25 22:57:00,41.2,40.4,29.73,WNW,302,4.6,4.6,97,0.00,-DZ,OVC,0.43,0.0,WeatherDisplay:10.37,2013-05-26 02:57:00,
2013-05-25 23:02:00,41.2,40.4,29.73,WNW,288,3.5,4.0,97,0.00,-DZ,OVC,0.43,0.0,WeatherDisplay:10.37,2013-05-26 03:02:00,
2013-05-25 23:07:00,41.2,40.4,29.73,WNW,301,4.6,4.6,97,0.00,-DZ,OVC,0.43,0.0,WeatherDisplay:10.37,2013-05-26 03:07:00,
2013-05-25 23:12:00,41.2,40.4,29.73,North,356,8.1,8.1,97,0.00,-DZ,OVC,0.43,0.0,WeatherDisplay:10.37,2013-05-26 03:12:00,
2013-05-25 23:17:00,41.2,40.4,29.73,NNW,339,5.8,5.8,97,0.00,-DZ,OVC,0.43,0.0,WeatherDisplay:10.37,2013-05-26 03:17:00,
2013-05-25 23:22:00,41.2,40.4,29.73,West,275,3.5,3.5,97,0.00,-DZ,OVC,0.43,0.0,WeatherDisplay:10.37,2013-05-26 03:22:00,
2013-05-25 23:27:00,41.2,40.4,29.73,West,274,8.1,8.1,97,0.00,-DZ,OVC,0.43,0.0,WeatherDisplay:10.37,2013-05-26 03:27:00,
2013-05-25 23:32:00,41.2,40.4,29.73,NW,318,4.6,4.6,97,0.00,-DZ,OVC,0.43,0.0,WeatherDisplay:10.37,2013-05-26 03:32:00,
2013-05-25 23:37:00,41.2,40.4,29.73,North,358,5.8,5.8,97,0.00,-DZ,OVC,0.43,0.0,WeatherDisplay:10.37,2013-05-26 03:37:00,
2013-05-25 23:42:00,41.2,40.4,29.73,NW,321,3.5,0.0,97,0.00,-DZ,OVC,0.43,0.0,WeatherDisplay:10.37,2013-05-26 03:42:00,
2013-05-25 23:47:00,41.2,40.4,29.73,NNW,329,3.5,3.5,97,0.00,-DZ,OVC,0.43,0.0,WeatherDisplay:10.37,2013-05-26 03:47:00,
2013-05-25 23:52:00,41.2,40.4,29.73,WNW,301,3.5,3.5,97,0.00,-DZ,OVC,0.43,0.0,WeatherDisplay:10.37,2013-05-26 03:52:00,
2013-05-25 23:57:00,41.2,40.4,29.73,NW,322,0.0,0.0,97,0.00,-DZ,OVC,0.43,0.0,WeatherDisplay:10.37,2013-05-26 03:57:00,